Theta_e
304 304 304 304 304 304 304 304 304 304 305 306 306 306 306 306 305 306 306 306 306 306 307 307 307 307 307 313 315 311 310 309 310 310 310 312 314 314 313 313 316 316 315 316 315 315 314
303 303 303 303 304 304 304 304 304 305 305 305 305 305 304 305 305 305 305 305 305 305 305 306 306 306 308 313 312 309 310 310 310 310 311 313 314 313 312 313 313 315 316 315 315 315 315
303 303 303 303 303 303 304 304 304 305 305 304 303 303 304 304 304 304 305 305 305 305 305 306 306 306 309 313 310 310 310 310 310 309 313 311 309 312 314 313 316 315 313 312 314 315 314
303 303 303 303 303 303 303 304 304 304 304 303 303 304 304 304 304 304 304 305 305 305 306 307 307 308 311 308 309 309 310 311 310 309 309 309 309 310 313 314 313 313 313 312 312 314 315
303 303 303 303 303 303 304 304 304 304 303 303 303 303 303 303 303 304 304 304 304 306 307 307 309 313 313 311 312 310 310 313 310 311 309 309 310 314 315 311 309 311 310 312 313 315 315
303 303 303 303 303 303 304 304 304 303 303 303 303 303 303 303 304 304 304 304 306 307 306 307 308 312 311 313 308 308 309 308 309 310 313 314 314 311 310 309 307 311 311 310 310 313 314
302 302 303 303 303 303 304 303 303 302 302 302 302 302 303 304 304 304 304 307 309 311 308 309 309 308 309 309 310 311 309 311 312 313 311 314 310 312 311 311 311 311 311 309 308 309 313
302 302 303 303 303 303 303 302 301 301 301 302 302 302 303 304 304 304 304 304 304 308 311 310 310 310 308 310 311 311 311 312 311 312 312 310 310 311 312 311 311 311 310 309 308 310 310
303 303 303 303 303 304 304 303 302 302 301 301 302 302 303 304 305 304 304 303 305 305 312 311 310 311 309 311 311 310 311 311 312 312 310 310 311 311 311 310 309 309 310 309 308 308 306
303 303 303 303 303 304 303 302 301 301 301 301 301 302 303 303 306 303 304 303 305 305 307 311 312 311 311 309 312 309 309 309 311 311 310 308 310 310 310 311 310 310 308 309 309 307 305
304 303 303 303 303 304 302 301 301 300 300 301 302 302 302 303 303 303 301 303 305 308 303 310 311 310 308 311 310 312 309 311 311 310 307 305 309 309 309 309 309 308 308 307 307 306 305
304 303 303 303 302 302 302 300 300 300 300 300 301 302 302 302 303 302 301 304 306 307 301 309 309 308 308 307 309 310 311 310 309 309 308 307 309 309 309 308 308 308 307 306 305 304 305
305 303 303 303 302 301 301 300 300 299 300 300 301 301 301 301 301 302 302 306 307 304 305 309 309 308 307 306 307 306 304 301 302 301 303 304 306 308 308 309 307 306 306 307 304 307 306
305 304 304 304 302 301 300 299 299 299 299 300 300 301 301 301 301 302 303 305 304 308 308 308 307 306 305 305 305 304 305 303 300 301 302 304 306 307 305 306 306 305 306 307 310 307 304
307 304 304 304 301 301 299 298 299 298 299 300 300 300 301 301 301 302 308 304 306 309 307 307 307 306 305 305 305 303 300 301 299 299 303 302 303 302 303 303 304 303 302 302 303 302 302
309 306 305 305 300 299 298 298 298 298 299 299 299 299 302 301 301 302 302 307 307 305 305 306 306 305 305 306 304 303 301 298 300 298 298 300 300 300 301 301 300 300 300 301 300 302 303
311 308 305 305 300 299 297 297 297 298 298 299 299 302 306 301 301 305 301 306 303 303 305 306 306 305 305 304 304 303 300 297 297 297 297 297 298 298 298 299 297 295 296 294 295 296 300
313 309 306 305 299 297 297 297 297 297 298 298 298 300 304 300 305 303 303 304 304 302 302 304 303 303 304 303 303 303 301 297 296 295 296 295 295 295 295 294 293 292 292 291 292 293 291
313 310 306 305 298 296 296 296 297 297 297 297 299 304 302 300 299 300 301 299 298 300 298 300 301 299 300 302 299 300 297 296 294 293 292 293 291 290 293 294 292 291 291 292 290 290 290
315 311 306 303 296 295 295 296 296 297 297 296 300 300 301 300 301 300 300 300 297 297 296 297 297 297 298 299 298 298 297 297 294 292 293 292 290 290 288 292 292 291 291 291 290 287 290
315 311 306 298 298 299 296 296 296 296 296 296 297 298 301 299 298 299 299 299 297 296 296 295 295 296 295 295 295 295 293 295 292 294 293 291 291 290 291 291 291 292 291 291 290 290 289
313 312 309 304 305 303 295 295 295 296 295 295 301 298 297 296 298 297 297 298 297 295 295 295 295 294 293 292 292 291 292 291 291 293 293 290 290 290 290 291 291 291 290 290 291 291 290
312 311 308 307 307 305 295 294 295 295 295 295 297 299 299 296 295 295 295 296 296 294 293 293 294 292 292 293 292 291 291 291 291 290 290 290 290 291 290 290 291 291 286 290 290 287 287
312 310 307 306 306 305 293 293 294 294 294 295 295 297 298 294 294 295 294 294 294 293 293 292 292 292 292 291 290 291 291 291 291 291 291 290 290 291 290 290 288 287 287 284 283 282 281
311 308 307 307 307 293 292 293 293 294 294 294 294 296 297 292 293 293 293 292 292 292 291 292 292 291 290 291 290 289 290 291 290 290 290 290 289 289 288 288 288 287 285 282 281 281 280
308 307 307 306 302 292 291 292 292 293 293 294 294 295 295 293 291 293 292 292 290 289 290 291 290 289 291 291 290 290 290 290 291 291 290 290 287 287 288 289 289 283 286 284 282 280 281
307 308 307 303 291 290 291 291 291 292 292 292 293 294 295 292 291 292 291 290 291 290 289 291 290 291 290 290 291 290 290 290 289 290 290 288 288 290 288 290 286 284 283 284 281 279 280
307 306 304 295 290 290 290 291 291 291 291 292 292 292 293 291 291 291 291 291 291 291 288 290 289 290 290 290 290 287 287 287 288 288 289 288 287 283 283 282 284 282 283 282 279 279 279
305 304 297 290 290 290 290 290 290 290 290 291 291 291 292 291 289 290 290 290 291 291 290 291 290 290 291 286 287 286 288 286 285 284 285 286 283 286 286 284 282 282 280 279 279 278 278
Wind_Speed
4 3 4 5 6 7 7 7 7 6 6 7 8 9 9 9 10 11 11 11 11 10 10 9 7 4 0 2 1 2 1 2 2 1 2 2 3 2 2 4 0 2 3 5 5 6 6
3 3 4 5 5 6 8 9 9 9 9 9 9 10 11 11 12 12 12 12 11 10 9 8 6 2 2 3 3 2 2 2 2 1 1 1 1 1 3 3 0 2 7 14 10 11 7
3 4 5 5 7 8 8 9 9 10 10 10 11 11 12 12 13 13 13 13 12 11 10 7 3 2 2 3 2 0 1 1 1 1 0 1 1 1 3 4 4 5 5 8 10 9 4
1 4 6 7 8 9 9 9 9 10 10 10 11 11 12 12 13 13 12 12 11 9 5 2 3 3 4 2 1 1 1 3 2 2 1 2 1 2 2 5 3 2 0 3 5 10 3
4 3 4 6 9 9 10 10 10 10 10 11 11 11 12 13 14 13 12 11 8 4 4 4 5 4 3 4 2 2 1 1 2 3 5 2 0 1 0 2 4 2 3 4 6 6 4
7 6 6 5 7 7 10 11 10 10 10 10 11 12 13 14 14 13 12 8 3 4 3 5 6 3 2 1 2 2 2 2 2 3 2 2 2 2 3 3 3 2 3 4 4 3 4
7 8 8 9 9 9 9 9 10 9 10 11 12 12 13 14 14 13 11 6 2 1 6 4 2 3 1 2 4 5 4 2 2 1 2 1 4 3 5 6 5 3 3 4 7 7 6
8 8 9 9 10 11 11 11 9 10 10 11 12 13 13 14 13 11 11 5 4 1 2 5 5 5 5 4 2 6 3 2 1 2 2 4 2 3 2 2 2 3 4 7 8 6 2
8 8 9 10 10 11 11 11 10 10 10 11 12 12 13 13 11 9 7 5 2 1 2 2 2 1 2 2 2 4 4 2 1 2 3 4 2 2 3 4 4 3 4 5 7 5 5
10 9 9 9 9 10 10 10 10 10 10 11 11 12 12 13 6 10 4 5 2 1 4 0 0 1 2 1 2 5 4 3 2 2 4 4 1 2 2 3 1 3 2 3 5 6 2
12 11 10 10 10 10 10 9 9 9 10 10 10 11 12 10 9 7 6 3 0 2 4 1 1 1 3 2 2 3 6 2 2 3 4 6 2 3 1 2 3 5 3 4 4 5 3
13 12 11 11 11 11 11 10 10 9 10 11 11 10 10 9 7 7 4 2 0 6 4 1 1 1 0 1 1 1 2 3 1 2 2 6 5 3 4 4 3 5 5 7 2 2 1
13 13 12 12 11 11 11 9 10 10 10 11 11 10 9 8 7 6 3 2 5 4 2 1 1 1 3 1 2 3 4 7 4 5 5 6 4 2 3 3 6 7 5 4 4 2 5
14 13 13 13 13 12 11 10 10 9 9 10 11 10 8 6 5 3 1 4 2 3 2 1 1 3 2 1 1 2 5 2 6 4 1 2 5 3 3 3 1 2 4 4 6 3 5
15 14 12 12 12 11 10 10 10 9 9 10 10 9 7 4 3 1 2 3 4 1 2 4 4 1 2 1 1 4 3 3 3 5 2 3 4 3 5 1 3 2 0 4 4 4 1
17 15 13 13 13 12 10 9 9 9 9 9 9 9 5 2 1 2 3 4 5 2 2 0 1 1 0 1 1 1 3 3 3 3 2 2 5 3 2 2 5 3 1 2 1 4 7
18 16 14 13 12 12 12 10 9 8 8 7 6 5 2 1 3 1 3 3 3 2 1 2 1 2 1 2 1 2 3 2 2 2 4 1 4 5 4 0 1 4 3 4 1 3 4
20 17 15 13 13 11 11 10 9 8 6 5 3 2 2 3 2 2 3 1 2 3 3 0 2 2 2 1 1 2 4 3 3 2 2 0 2 3 7 8 7 5 3 3 3 4 1
22 18 15 13 12 11 10 10 9 8 6 4 2 3 2 6 2 1 3 3 3 2 3 4 2 3 2 1 2 3 4 7 6 3 2 1 1 3 1 4 5 5 3 1 2 3 5
24 19 16 13 13 9 8 9 10 9 7 7 3 1 2 4 2 6 5 3 3 2 2 2 2 1 1 1 2 2 3 5 5 2 2 1 3 5 5 1 2 3 4 4 4 2 4
26 21 17 14 15 11 11 11 11 10 9 9 6 4 4 2 2 3 4 6 4 3 2 2 1 0 3 4 0 3 3 3 4 3 3 3 3 3 5 5 3 6 9 11 11 7 5
27 24 23 22 16 12 13 13 12 10 10 13 7 5 4 3 2 4 1 3 6 3 4 2 3 4 1 2 1 3 4 3 4 4 3 3 3 3 3 6 6 7 7 7 7 2 2
29 25 22 16 14 12 14 13 11 9 11 8 10 7 4 3 2 4 2 3 3 11 1 3 6 4 2 3 2 1 0 1 1 5 5 3 3 2 3 2 6 7 2 2 2 4 1
29 22 15 14 11 11 11 11 9 8 11 13 7 8 5 1 2 2 3 4 5 2 5 3 6 3 2 2 5 6 7 8 8 8 7 3 1 2 4 3 2 2 3 4 2 3 5
29 19 14 11 11 8 10 8 7 7 9 12 11 8 5 3 8 5 9 10 15 13 6 8 4 3 2 1 2 2 2 2 4 5 6 8 4 1 1 2 1 1 4 3 3 4 2
23 17 13 12 11 9 8 5 3 4 5 7 12 12 6 14 3 4 8 10 4 3 2 2 2 2 2 1 1 2 4 3 2 2 5 4 4 3 1 1 4 1 3 8 4 3 10
21 16 14 15 12 10 7 5 4 3 7 8 10 12 9 11 9 5 3 5 4 6 3 2 1 2 2 1 2 3 3 3 2 4 4 2 1 7 5 5 1 2 11 7 3 5 13
21 17 18 16 13 10 8 6 6 5 6 7 10 10 7 11 14 8 8 7 11 8 4 3 3 2 2 2 1 2 1 2 1 2 1 3 2 2 1 2 5 6 1 0 3 11 16
22 20 20 18 14 11 10 7 5 5 7 7 12 9 11 14 22 19 19 16 15 10 10 4 3 3 2 2 2 2 2 2 1 1 5 0 2 1 1 1 1 5 15 8 12 13 16
Wind_Direction
63 34 12 11 6 356 348 351 351 348 350 350 349 351 347 347 348 346 345 340 337 337 334 331 333 325 253 113 193 327 251 254 274 288 71 96 63 308 317 354 53 170 311 340 310 279 272
25 356 5 358 349 336 342 344 345 345 347 346 347 348 346 347 345 345 340 337 335 330 327 324 322 295 174 125 279 310 263 273 277 215 94 152 77 353 307 278 185 248 293 286 278 254 233
347 335 349 339 328 338 342 340 341 344 344 343 346 348 348 347 344 341 339 334 329 324 321 320 305 173 135 140 328 5 93 19 30 126 162 7 270 182 317 318 317 291 316 310 255 222 194
305 326 332 327 330 339 335 334 340 339 340 343 347 347 345 344 339 337 337 334 328 327 331 8 110 135 95 55 101 55 103 18 26 68 43 351 318 276 255 306 297 275 19 330 297 148 191
281 286 300 318 327 334 330 334 334 335 339 343 343 342 341 341 338 338 338 340 342 10 57 92 100 100 75 75 33 48 88 164 327 351 358 331 290 14 353 66 1 327 251 240 305 184 128
293 293 296 307 313 331 327 330 330 335 337 337 339 340 342 343 341 341 342 341 34 64 88 96 85 106 105 274 6 356 344 324 335 331 15 72 74 52 16 82 238 240 274 302 274 254 189
278 289 303 312 316 321 320 324 327 332 334 338 341 342 341 344 346 345 348 342 337 12 38 57 52 107 150 321 47 15 9 56 69 349 100 229 65 225 233 228 259 306 272 269 277 279 182
284 292 306 313 318 322 323 323 328 330 335 338 340 341 343 345 349 355 357 16 31 75 345 65 74 61 72 99 102 19 59 33 316 326 181 25 228 223 242 116 61 8 323 290 285 293 246
283 289 303 310 317 321 324 324 326 329 332 335 338 340 342 344 345 358 14 34 37 106 125 46 96 43 29 76 86 20 28 12 342 353 22 185 274 52 18 343 349 290 237 267 258 319 327
286 288 297 302 310 316 317 316 319 323 325 331 337 338 343 346 350 349 358 2 354 193 82 197 77 8 16 99 43 29 24 37 327 16 346 255 215 88 3 288 277 270 321 321 333 20 269
283 286 297 305 307 311 312 307 311 316 321 325 331 337 339 349 339 349 333 335 7 131 23 332 135 129 41 64 138 30 39 33 36 318 70 259 103 58 325 229 355 245 312 288 277 270 16
277 281 289 300 302 306 307 305 307 312 318 321 328 333 335 342 342 343 335 327 355 45 264 73 79 258 202 154 132 134 39 42 47 310 234 247 293 189 203 295 227 293 350 324 303 143 295
270 275 284 292 297 304 303 299 304 310 315 320 323 328 331 337 335 330 325 349 33 120 293 20 65 36 349 102 100 28 60 17 44 37 1 329 335 30 46 348 20 30 48 332 327 6 226
273 274 282 291 297 303 303 298 300 305 311 317 321 321 319 315 326 314 293 59 120 265 57 270 280 302 247 10 132 85 122 89 24 19 59 68 334 8 354 100 244 298 149 172 258 223 270
270 269 275 284 287 292 295 293 295 301 308 314 316 313 311 297 302 211 157 66 216 44 334 11 320 272 227 216 169 103 66 103 31 28 118 33 264 1 57 342 108 315 85 161 271 205 247
267 270 271 282 289 291 286 281 289 297 307 313 316 308 306 339 200 177 83 189 153 92 353 10 212 203 79 198 198 140 149 314 121 55 29 31 302 299 343 331 63 117 194 21 7 273 243
258 265 267 276 282 287 288 282 281 288 300 307 307 288 223 248 175 201 158 187 125 93 106 123 207 281 150 158 137 270 108 358 68 343 350 105 161 293 14 18 115 340 31 54 109 190 248
252 259 263 271 279 283 283 280 280 284 289 291 266 304 196 179 193 114 147 81 130 132 24 53 84 68 103 123 258 185 147 84 108 71 91 342 124 267 248 329 88 81 83 85 132 274 229
245 249 256 265 275 277 280 282 280 277 274 248 229 270 237 199 188 125 138 68 63 48 56 20 96 8 348 63 274 62 98 124 95 61 79 46 229 329 274 331 18 61 80 65 239 182 214
243 243 247 255 259 259 273 281 278 271 255 222 217 332 175 189 153 137 152 170 127 58 84 69 131 358 36 145 64 153 133 159 131 119 133 92 227 208 207 175 211 261 307 283 214 168 252
237 236 236 241 242 272 279 276 268 259 241 199 205 226 178 209 271 144 126 143 141 167 129 105 60 169 162 188 174 199 112 138 135 167 167 134 254 259 275 271 262 282 285 276 265 230 193
229 234 237 237 249 254 281 275 268 254 230 207 186 171 160 121 140 112 68 165 152 125 155 206 203 158 131 150 209 166 143 142 179 181 183 176 268 328 287 277 281 276 265 260 255 174 298
225 231 239 245 250 249 269 278 271 247 222 216 208 190 175 137 128 115 183 150 144 132 94 74 147 114 150 128 61 120 31 142 156 155 196 190 191 344 258 284 319 289 279 351 37 58 46
226 233 238 244 247 244 266 269 266 243 226 222 209 178 167 166 95 155 127 111 121 54 138 98 81 89 137 276 293 273 256 253 255 250 209 176 95 200 275 336 271 257 49 117 126 46 27
224 220 231 236 238 243 258 257 254 239 226 222 217 190 158 92 110 84 101 113 95 89 78 83 58 112 147 64 31 307 349 285 252 219 210 188 141 268 222 217 260 336 11 29 100 280 302
208 211 223 222 205 228 229 226 226 215 205 195 193 189 146 124 8 159 129 150 132 108 49 73 100 59 78 93 223 251 229 210 169 273 213 163 110 137 15 263 267 219 311 339 133 283 6
199 206 217 198 209 199 195 186 182 165 182 186 184 184 149 104 47 136 107 149 115 105 107 120 164 36 20 52 228 228 256 178 215 173 173 159 240 217 242 262 245 297 308 322 80 262 349
193 202 185 191 193 186 174 174 174 177 182 185 165 169 168 104 75 108 110 117 102 100 123 146 67 6 31 41 349 288 82 257 67 19 59 171 184 220 2 33 281 349 63 27 304 338 335
192 188 182 179 177 174 161 157 153 159 149 160 138 138 151 104 110 99 87 85 86 92 119 92 106 91 49 76 7 10 346 19 114 269 10 269 136 130 8 225 44 64 96 44 358 342 337